Holbrook, NY

1:40 AM EST on January 20, 2017 (GMT -0500)
Long Island Mac Arthur

Weather History for KISP - August, 2014

Change the Weather History Date:

Friday, August 8, 2014

  Actual Average Record
Temperature  
Mean Temperature 72 °F 74 °F  
Max Temperature 82 °F 81 °F 96 °F (2001)
Min Temperature 61 °F 66 °F 51 °F (2004)
Degree Days  
Heating Degree Days 0 0  
Month to date heating degree days 0 0  
Since 1 June heating degree days 2 40  
Since 1 July heating degree days 0 2  
Cooling Degree Days 7 9  
Month to date cooling degree days 71 72  
Year to date cooling degree days 595 512  
Since 1 June cooling degree days 566 488  
Growing Degree Days 22 (Base 50)    
Moisture  
Dew Point 55 °F    
Average Humidity 56    
Maximum Humidity 78    
Minimum Humidity 33    
Precipitation  
Precipitation 0.00 in 0.13 in 1.20 in (2007)
Month to date precipitation 0.46 1.01  
Year to date precipitation 26.95 28.17  
Snow  
Snow 0.00 in 0.00 in - ()
Month to date snowfall 0.0 0.0  
Since 1 July snowfall 0.0 0.0  
Snow Depth 0.00 in    
Sea Level Pressure  
Sea Level Pressure 30.03 in    
Wind  
Wind Speed 7 mph (NW)    
Max Wind Speed 16 mph    
Max Gust Speed 21 mph    
Visibility 10 miles    
Events      
T = Trace of Precipitation, MM = Missing Value Source: NWS Daily Summary

Daily Weather History Graph

Daily Weather History Graph

Search for Another Location

Airport or City:

Trip Planner

Search our weather history database for the weather conditions in past years. The results will help you decide how hot, cold, wet, or windy it might be!

Date:

Astronomy

Aug. 08, 2014 Rise Set
Actual Time 5:55 AM EDT 7:59 PM EDT
Civil Twilight 5:25 AM EDT 8:29 PM EDT
Nautical Twilight 4:48 AM EDT 9:06 PM EDT
Astronomical Twilight 4:08 AM EDT 9:46 PM EDT
Moon 6:08 PM EDT (8/8) 3:24 AM EDT (8/8)
Length of Visible Light 15h 04m
Length of Day
14h 04m
Waxing Gibbous, 93% of the Moon is Illuminated
Aug 8
Waxing Gibbous
Aug 10
Full
Aug 17
Last Quarter
Aug 25
New
Sep 2
First Quarter

Hourly Weather History & Observations

Time (EDT) Temp. Dew Point Humidity Pressure Visibility Wind Dir Wind Speed Gust Speed Precip Events Conditions
12:56 AM 66.0 °F 53.1 °F 63% 29.99 in 10.0 mi NNW 8.1 mph - N/A   Clear
1:56 AM 64.9 °F 53.1 °F 65% 30.00 in 10.0 mi NW 8.1 mph - N/A   Clear
2:56 AM 64.0 °F 54.0 °F 70% 30.00 in 10.0 mi NNW 5.8 mph - N/A   Clear
3:56 AM 63.0 °F 54.0 °F 72% 30.00 in 10.0 mi NNW 8.1 mph - N/A   Clear
4:56 AM 62.1 °F 55.0 °F 78% 30.01 in 10.0 mi NNW 6.9 mph - N/A   Clear
5:56 AM 61.0 °F 54.0 °F 78% 30.02 in 10.0 mi NW 5.8 mph - N/A   Mostly Cloudy
6:56 AM 64.9 °F 55.9 °F 73% 30.04 in 10.0 mi NNW 6.9 mph - N/A   Mostly Cloudy
7:56 AM 68.0 °F 55.9 °F 65% 30.05 in 10.0 mi NNW 10.4 mph - N/A   Scattered Clouds
8:56 AM 71.1 °F 55.0 °F 57% 30.06 in 10.0 mi North 13.8 mph - N/A   Scattered Clouds
9:56 AM 73.0 °F 55.0 °F 53% 30.06 in 10.0 mi NNW 8.1 mph - N/A   Scattered Clouds
10:56 AM 75.9 °F 55.0 °F 48% 30.06 in 10.0 mi North 9.2 mph - N/A   Partly Cloudy
11:56 AM 78.1 °F 55.0 °F 45% 30.06 in 10.0 mi NNW 10.4 mph - N/A   Partly Cloudy
12:56 PM 79.0 °F 53.1 °F 40% 30.04 in 10.0 mi North 9.2 mph - N/A   Partly Cloudy
1:56 PM 80.1 °F 50.0 °F 35% 30.04 in 10.0 mi NNW 10.4 mph - N/A   Partly Cloudy
2:56 PM 82.0 °F 50.0 °F 33% 30.03 in 10.0 mi NW 6.9 mph - N/A   Partly Cloudy
3:56 PM 81.0 °F 52.0 °F 36% 30.02 in 10.0 mi NNW 10.4 mph - N/A   Partly Cloudy
4:56 PM 80.1 °F 52.0 °F 38% 30.02 in 10.0 mi NNW 10.4 mph - N/A   Partly Cloudy
5:56 PM 79.0 °F 51.1 °F 38% 30.02 in 10.0 mi WNW 8.1 mph - N/A   Partly Cloudy
6:56 PM 78.1 °F 51.1 °F 39% 30.03 in 10.0 mi West 6.9 mph - N/A   Partly Cloudy
7:56 PM 75.9 °F 52.0 °F 43% 30.03 in 10.0 mi WNW 3.5 mph - N/A   Scattered Clouds
8:56 PM 71.1 °F 61.0 °F 70% 30.05 in 10.0 mi WSW 4.6 mph - N/A   Scattered Clouds
9:56 PM 70.0 °F 61.0 °F 73% 30.05 in 10.0 mi West 5.8 mph - N/A   Scattered Clouds
10:56 PM 68.0 °F 61.0 °F 78% 30.06 in 10.0 mi West 6.9 mph - N/A   Scattered Clouds
11:56 PM 68.0 °F 60.1 °F 76% 30.05 in 10.0 mi Calm Calm - N/A   Partly Cloudy